Location: Andershausen
(51.8462°N, 9.8595°E)
Time: 00:14:15
(UTC+00:00)

Cosmos 1812 - Pass Details

Date: 18 November 2025
Orbit: 344 x 354 km, 82.5° (Epoch: 04 December)

Event Time Altitude Azimuth Distance (km) Brightness Sun altitude
Rises 17:48:43 0° 211° (SSW) 2,225 6.4 -21.7°
Reaches altitude 10° 17:50:51 10° 223° (SW) 1,373 5.5 -22.0°
Maximum altitude 17:53:30 29° 287° (WNW) 708 4.0 -22.4°
Enters shadow 17:54:27 24° 322° (NW) 820 4.0 -22.6°
